Location: Edisto_Beach
(32.4790°N, 80.3350°W)
Time: 00:26:09
(UTC-04:00)

Amateur Radio Satellites - All Passes

Search period start: 01 April 2015 23:56
Search period end: 02 April 2015 23:56
Location: Edisto_Beach, 32.4790°N, 80.3350°W

Satellite Date Start Highest point End Downlink Frequencies (MHz)
Time Altitude Azimuth
PCSat 01 Apr 23:58:40 00:03:57 51° 61° (ENE) 00:09:12 145.827
TISAT 1 01 Apr 23:59:24 00:01:35 14° 70° (ENE) 00:03:58 437.305
POPSAT HIP 1 01 Apr 23:59:46 00:03:45 40° 98° (E) 00:07:47 437.405
ANTELSAT 02 Apr 00:03:01 00:07:41 83° 283° (WNW) 00:12:23 437.575/2403.000
NANOSAT C BR1 02 Apr 00:08:38 00:12:46 53° 100° (E) 00:16:56 145.865
POLYITAN 1 02 Apr 00:16:17 00:20:32 69° 101° (E) 00:24:47 437.675
SPROUT 02 Apr 00:22:02 00:25:51 33° 73° (ENE) 00:29:43 437.525
CUBEBUG 1 02 Apr 00:27:30 00:31:43 44° 261° (W) 00:35:56 437.445
VELOX 1 02 Apr 00:40:50 00:43:19 14° 268° (W) 00:45:33 145.980
AISAT 02 Apr 00:48:17 00:49:48 11° 269° (W) 00:51:01 437.250
DUCHIFAT 1 02 Apr 00:50:58 00:54:59 44° 285° (WNW) 00:59:00 145.980
QB50P1 02 Apr 00:51:24 00:55:25 42° 286° (WNW) 00:59:25 145.935-145.965
YUBILEINY 02 Apr 00:52:52 01:01:13 47° 77° (ENE) 01:09:35 435.215
SWISSCUBE 02 Apr 00:55:47 00:57:02 11° 67° (ENE) 00:58:35 437.505
BEESAT 02 Apr 00:58:22 00:59:18 11° 66° (ENE) 01:00:34 436.000
UNISAT 6 02 Apr 00:59:59 01:03:23 20° 289° (WNW) 01:06:40 437.425
QB50P2 02 Apr 01:07:59 01:11:36 27° 287° (WNW) 01:15:08 145.880/145.840
TIGRISAT 02 Apr 01:08:47 01:11:45 16° 290° (WNW) 01:14:33 435.000
BUGSAT 1 02 Apr 01:14:26 01:18:02 31° 286° (WNW) 01:21:34 437.445
TISAT 1 02 Apr 01:33:12 01:37:07 36° 262° (W) 01:41:00 437.305
POPSAT HIP 1 02 Apr 01:37:13 01:39:21 13° 291° (WNW) 01:41:15 437.405
PCSat 02 Apr 01:43:33 01:46:59 17° 254° (WSW) 01:50:10 145.827
ITUPSAT 1 02 Apr 01:44:04 01:48:24 35° 72° (ENE) 01:52:47 437.325
NANOSAT C BR1 02 Apr 01:47:34 01:48:15 10° 292° (WNW) 01:48:38 145.865
Oscar 19 02 Apr 01:55:48 01:59:40 22° 94° (E) 02:03:42 437.125/150
SPROUT 02 Apr 01:59:21 02:02:04 16° 267° (W) 02:04:36 437.525
SWISSCUBE 02 Apr 02:29:40 02:34:25 64° 259° (W) 02:39:12 437.505
VERMONT LUNAR 02 Apr 02:29:55 02:31:26 13° 141° (SE) 02:33:02 437.305
BEESAT 02 Apr 02:31:55 02:36:41 66° 259° (W) 02:41:28 436.000
Gurwin Techsat 1B 02 Apr 02:43:08 02:45:58 15° 91° (E) 02:49:06 435.225
YUBILEINY 02 Apr 02:50:17 02:57:47 31° 273° (W) 03:04:59 435.215
RS-15 02 Apr 02:58:32 03:07:55 29° 43° (NE) 03:18:01 29.354- 29.394
O/OREOS (USA 219) 02 Apr 03:00:57 03:04:16 21° 102° (ESE) 03:07:45 437.305
ITAMSAT 1 02 Apr 03:09:20 03:14:02 35° 98° (E) 03:18:46 435.822/435.867
KKS-1 02 Apr 03:13:55 03:18:16 60° 75° (ENE) 03:22:39 437.445
ITUPSAT 1 02 Apr 03:22:56 03:26:24 19° 266° (W) 03:29:44 437.325
SO-50 02 Apr 03:27:58 03:32:33 37° 56° (NE) 03:37:07 436.795
Oscar 19 02 Apr 03:34:25 03:39:07 35° 288° (WNW) 03:43:46 437.125/150
STARS 02 Apr 03:36:35 03:40:55 68° 76° (ENE) 03:45:16 437.465
PHONESAT 2.4 02 Apr 03:42:16 03:44:58 21° 144° (SE) 03:47:43 2401.200-2431.200
HORYU 2 02 Apr 03:49:15 03:51:14 13° 92° (E) 03:53:28 437.375
VERMONT LUNAR 02 Apr 04:05:27 04:08:48 88° 334° (NNW) 04:12:09 437.305
AIST 1 02 Apr 04:05:34 04:09:47 48° 93° (E) 04:14:02
Gurwin Techsat 1B 02 Apr 04:21:09 04:26:19 52° 286° (WNW) 04:31:26 435.225
ISS 02 Apr 04:31:29 04:34:01 21° 36° (NE) 04:36:35 145.825
AO-7 02 Apr 04:38:48 04:46:05 35° 98° (E) 04:53:31 29.400- 29.500
O/OREOS (USA 219) 02 Apr 04:39:31 04:43:33 29° 296° (WNW) 04:47:32 437.305
ITAMSAT 1 02 Apr 04:49:22 04:53:22 22° 291° (WNW) 04:57:10 435.822/435.867
JAS-2 02 Apr 04:53:17 05:00:10 40° 95° (E) 05:06:27 435.910
M-CUBED/EXP-1 PRIME 02 Apr 04:55:48 04:58:15 16° 63° (ENE) 05:01:00 437.505
SO-50 02 Apr 05:09:10 05:12:53 21° 250° (WSW) 05:16:25 436.795
RS-15 02 Apr 05:10:03 05:21:42 79° 245° (WSW) 05:33:47 29.354- 29.394
GONETS M04 02 Apr 05:15:10 05:17:15 11° 62° (ENE) 05:20:12
MOZHAYETS 4 02 Apr 05:17:20 05:21:55 72° 77° (ENE) 05:26:34
PHONESAT 2.4 02 Apr 05:19:37 05:23:07 61° 336° (NNW) 05:26:37 2401.200-2431.200
HORYU 2 02 Apr 05:23:51 05:28:10 44° 286° (WNW) 05:32:26 437.375
VERMONT LUNAR 02 Apr 05:43:56 05:46:46 25° 349° (NNW) 05:49:34 437.305
AIST 1 02 Apr 05:46:33 05:47:48 11° 289° (WNW) 05:48:46
AUBIESAT-1 02 Apr 06:00:37 06:04:38 85° 73° (ENE) 06:09:03 437.475
ISS 02 Apr 06:07:38 06:10:25 26° 230° (SW) 06:13:09 145.825
PRISM 02 Apr 06:22:26 06:25:11 18° 70° (ENE) 06:28:04 437.425
STRAND 1 02 Apr 06:27:51 06:30:54 17° 68° (ENE) 06:34:11 437.568
M-CUBED/EXP-1 PRIME 02 Apr 06:29:06 06:32:49 36° 259° (WSW) 06:36:49 437.505
AO-7 02 Apr 06:31:14 06:39:00 45° 293° (WNW) 06:46:39 29.400- 29.500
JAS-2 02 Apr 06:38:24 06:45:02 34° 292° (WNW) 06:51:01 435.910
CUSAT 1 02 Apr 06:54:02 06:56:09 13° 75° (ENE) 06:58:53 437.405
PHONESAT 2.4 02 Apr 06:58:57 07:01:51 23° 352° (N) 07:04:45 2401.200-2431.200
GONETS M04 02 Apr 07:07:03 07:15:54 76° 82° (E) 07:24:45
CUBESAT XI-V 02 Apr 07:15:49 07:20:32 81° 258° (WSW) 07:25:15 437.345
VERMONT LUNAR 02 Apr 07:22:28 07:25:04 21° 5° (N) 07:27:41 437.305
RS-15 02 Apr 07:26:56 07:33:00 14° 258° (WSW) 07:37:54 29.354- 29.394
CUTE-I 02 Apr 07:39:31 07:44:51 81° 102° (ESE) 07:50:10 437.470
Cubesat XI-IV 02 Apr 07:40:58 07:46:18 84° 101° (E) 07:51:38 437.490
PRISM 02 Apr 07:56:44 08:00:28 30° 263° (W) 08:04:10 437.425
STRAND 1 02 Apr 08:04:48 08:09:46 48° 260° (W) 08:14:44 437.568
DANDE 02 Apr 08:06:25 08:11:04 50° 81° (E) 08:17:18 436.750
CUSAT 1 02 Apr 08:33:51 08:38:56 68° 263° (W) 08:45:39 437.405
PHONESAT 2.4 02 Apr 08:37:53 08:40:51 25° 9° (N) 08:43:49 2401.200-2431.200
BEESAT 3 02 Apr 08:49:08 08:52:05 20° 111° (ESE) 08:55:10 437.485
CANX-2 02 Apr 08:55:56 08:57:13 11° 91° (E) 08:58:46 2200.000
VERMONT LUNAR 02 Apr 08:59:57 09:03:12 48° 22° (NNE) 09:06:27 437.305
BRITE-PL 02 Apr 09:01:10 09:04:48 26° 97° (E) 09:08:41 437.365/2234.400
GONETS M04 02 Apr 09:06:17 09:11:57 18° 277° (W) 09:17:03
CUTE 1.7 + AOD 2 02 Apr 09:08:14 09:10:38 15° 92° (E) 09:13:13 437.475
AAUSAT CUBESAT 2 02 Apr 09:18:35 09:18:41 10° 90° (E) 09:19:07 437.432
CUTE-I 02 Apr 09:23:23 09:24:21 10° 295° (WNW) 09:24:55 437.470
GOMX 1 02 Apr 09:26:10 09:30:09 33° 98° (E) 09:34:25 467.674
SEEDS 02 Apr 09:30:21 09:33:43 23° 95° (E) 09:37:11 437.485
HO-68 02 Apr 09:38:14 09:45:04 45° 100° (E) 09:51:54 435.675
CINEMA 3 02 Apr 09:41:43 09:44:30 16° 93° (E) 09:47:33 145.822/145.860
COMPASS 1 02 Apr 09:46:04 09:49:44 28° 96° (E) 09:53:26 437.405
DANDE 02 Apr 09:51:12 09:54:27 16° 264° (W) 09:57:49 436.750
AIST 2 02 Apr 09:53:02 09:56:42 29° 112° (ESE) 10:00:28 435.215
BEESAT 2 02 Apr 09:53:47 09:57:53 77° 298° (WNW) 10:02:02 435.950
DELFI C3 02 Apr 10:05:38 10:07:21 13° 92° (E) 10:09:18 145.870
Oscar 11 02 Apr 10:12:47 10:16:13 23° 95° (E) 10:19:42 145.826/435.025
PHONESAT 2.4 02 Apr 10:16:00 10:19:32 74° 25° (NNE) 10:23:03 2401.200-2431.200
UNISAT 6 02 Apr 10:18:44 10:21:17 16° 70° (ENE) 10:24:02 437.425
BEESAT 3 02 Apr 10:26:28 10:30:00 27° 305° (NW) 10:33:30 437.485
TIGRISAT 02 Apr 10:26:30 10:29:27 19° 71° (ENE) 10:32:34 435.000
CANX-2 02 Apr 10:29:19 10:33:28 45° 285° (WNW) 10:37:34 2200.000
FUNcube-1 02 Apr 10:31:56 10:35:07 20° 94° (E) 10:38:29 145.935
DOVE 4 02 Apr 10:32:08 10:36:34 63° 283° (WNW) 10:41:16 437.250
VERMONT LUNAR 02 Apr 10:37:56 10:40:45 25° 215° (SW) 10:43:34 437.305
BRITE-PL 02 Apr 10:39:56 10:43:16 21° 287° (WNW) 10:46:36 437.365/2234.400
CUTE 1.7 + AOD 2 02 Apr 10:42:46 10:46:43 35° 286° (WNW) 10:50:36 437.475
ZACube-1 02 Apr 10:45:57 10:49:50 29° 97° (E) 10:53:49 437.345
UWE-3 02 Apr 10:46:46 10:50:57 38° 98° (E) 10:55:16 435.000/436.395/437.385
POPSAT HIP 1 02 Apr 10:49:20 10:52:04 18° 71° (ENE) 10:54:57 437.405
AAUSAT CUBESAT 2 02 Apr 10:50:35 10:54:40 49° 285° (WNW) 10:58:44 437.432
NANOSAT C BR1 02 Apr 10:57:35 11:00:47 22° 72° (ENE) 11:04:05 145.865
ANTELSAT 02 Apr 10:57:50 11:01:55 47° 75° (ENE) 11:06:06 437.575/2403.000
VELOX 1 02 Apr 11:00:17 11:01:07 11° 91° (E) 11:02:17 145.980
CUBEBUG 2 02 Apr 11:00:36 11:05:07 71° 101° (E) 11:09:45 437.445
50 SAT 02 Apr 11:01:32 11:02:37 11° 91° (E) 11:03:59 437.505
HUMSAT D 02 Apr 11:03:12 11:06:26 21° 95° (E) 11:09:47 437.325/437.525
GOMX 1 02 Apr 11:05:04 11:08:09 18° 288° (WNW) 11:11:11 467.674
POLYITAN 1 02 Apr 11:05:24 11:08:58 28° 73° (ENE) 11:12:36 437.675
AISAT 02 Apr 11:05:44 11:07:49 14° 92° (E) 11:10:09 437.250
SEEDS 02 Apr 11:06:03 11:09:28 23° 288° (WNW) 11:12:46 437.485
CINEMA 3 02 Apr 11:17:36 11:21:50 38° 285° (WNW) 11:26:11 145.822/145.860
UKube-1 02 Apr 11:20:13 11:24:24 48° 100° (E) 11:28:34 .
COMPASS 1 02 Apr 11:22:15 11:25:15 18° 289° (WNW) 11:28:06 437.405
HO-68 02 Apr 11:26:29 11:32:33 29° 294° (WNW) 11:38:25 435.675
AIST 2 02 Apr 11:32:03 11:35:21 21° 307° (NW) 11:38:34 435.215
DX 1 02 Apr 11:36:07 11:40:28 82° 102° (ESE) 11:44:48 434.975-435.025
DUCHIFAT 1 02 Apr 11:38:34 11:42:44 72° 77° (ENE) 11:46:55 145.980
DELFI C3 02 Apr 11:38:56 11:42:43 36° 286° (WNW) 11:46:28 145.870
QB50P1 02 Apr 11:39:16 11:43:28 76° 77° (ENE) 11:47:41 145.935-145.965
Oscar 11 02 Apr 11:48:46 11:52:20 24° 288° (WNW) 11:55:47 145.826/435.025
ESTCUBE 1 02 Apr 11:48:48 11:52:13 22° 95° (E) 11:55:43 437.505/2401.250
UNISAT 6 02 Apr 11:53:58 11:57:50 33° 263° (W) 12:01:44 437.425
PHONESAT 2.4 02 Apr 11:55:13 11:57:36 17° 218° (SW) 11:59:55 2401.200-2431.200
QB50P2 02 Apr 11:55:42 11:59:54 65° 259° (W) 12:04:05 145.880/145.840
BUGSAT 1 02 Apr 11:59:22 12:03:31 87° 255° (WSW) 12:07:39 437.445
TIGRISAT 02 Apr 12:02:24 12:06:04 27° 264° (W) 12:09:42 435.000
FUNcube-1 02 Apr 12:07:35 12:11:30 30° 287° (WNW) 12:15:23 145.935
CUBEBUG 1 02 Apr 12:20:57 12:25:06 46° 99° (E) 12:29:15 437.445
ZACube-1 02 Apr 12:22:42 12:26:02 20° 289° (WNW) 12:29:17 437.345
POPSAT HIP 1 02 Apr 12:24:04 12:27:46 29° 263° (W) 12:31:26 437.405
UWE-3 02 Apr 12:24:23 12:27:15 16° 289° (WNW) 12:29:57 435.000/436.395/437.385
NANOSAT C BR1 02 Apr 12:33:10 12:36:34 23° 265° (W) 12:39:52 145.865
VELOX 1 02 Apr 12:33:46 12:38:03 50° 285° (WNW) 12:42:18 145.980
50 SAT 02 Apr 12:33:56 12:37:46 41° 286° (WNW) 12:41:35 437.505
ANTELSAT 02 Apr 12:38:03 12:39:05 10° 270° (W) 12:39:48 437.575/2403.000
JUGNU 02 Apr 12:38:32 12:42:35 19° 170° (S) 12:46:42 437.505
HUMSAT D 02 Apr 12:38:36 12:42:10 25° 287° (WNW) 12:45:40 437.325/437.525
AISAT 02 Apr 12:40:31 12:44:39 40° 286° (WNW) 12:48:46 437.250
POLYITAN 1 02 Apr 12:41:59 12:44:56 18° 266° (W) 12:47:45 437.675
PCSat 02 Apr 12:56:05 12:57:53 12° 105° (ESE) 13:00:04 145.827
UKube-1 02 Apr 12:58:27 13:00:10 12° 292° (WNW) 13:01:40 .
Oscar 19 02 Apr 13:08:42 13:12:17 20° 69° (ENE) 13:16:03 437.125/150
O/OREOS (USA 219) 02 Apr 13:15:15 13:18:27 19° 61° (ENE) 13:21:45 437.305
TISAT 1 02 Apr 13:22:09 13:26:12 46° 99° (E) 13:30:15 437.305
ESTCUBE 1 02 Apr 13:25:16 13:29:05 27° 288° (WNW) 13:32:48 437.505/2401.250
SRMSAT 02 Apr 13:46:32 13:50:09 17° 167° (SSE) 13:53:51 437.500
YUBILEINY 02 Apr 13:47:21 13:55:57 63° 92° (E) 14:04:39 435.215
SPROUT 02 Apr 13:48:45 13:53:00 63° 283° (WNW) 13:57:14 437.525
ITUPSAT 1 02 Apr 13:51:05 13:53:07 13° 91° (E) 13:55:27 437.325
CUBEBUG 1 02 Apr 13:59:16 14:01:07 12° 291° (WNW) 14:02:44 437.445
Gurwin Techsat 1B 02 Apr 14:00:04 14:03:08 16° 67° (ENE) 14:06:28 435.225
ITAMSAT 1 02 Apr 14:22:52 14:27:31 35° 72° (ENE) 14:32:14 435.822/435.867
JUGNU 02 Apr 14:26:20 14:31:02 24° 179° (S) 14:35:45 437.505
SWISSCUBE 02 Apr 14:34:48 14:39:24 47° 99° (E) 14:43:59 437.505
PCSat 02 Apr 14:35:26 14:40:48 68° 296° (WNW) 14:46:14 145.827
BEESAT 02 Apr 14:36:58 14:41:33 45° 99° (E) 14:46:07 436.000
Oscar 19 02 Apr 14:46:40 14:51:24 38° 262° (W) 14:56:09 437.125/150
O/OREOS (USA 219) 02 Apr 14:53:57 14:57:58 31° 256° (WSW) 15:01:51 437.305
TISAT 1 02 Apr 15:00:10 15:01:38 11° 291° (WNW) 15:02:52 437.305
JAS-2 02 Apr 15:03:50 15:05:45 11° 59° (ENE) 15:08:16 435.910
KKS-1 02 Apr 15:10:50 15:13:39 17° 93° (E) 15:16:38 437.445
ITUPSAT 1 02 Apr 15:26:44 15:31:23 49° 286° (WNW) 15:35:57 437.325
STARS 02 Apr 15:32:01 15:35:00 18° 94° (E) 15:38:08 437.465
AO-7 02 Apr 15:33:12 15:40:10 33° 64° (ENE) 15:47:21 29.400- 29.500
SRMSAT 02 Apr 15:34:06 15:38:46 24° 177° (S) 15:43:25 437.500
Gurwin Techsat 1B 02 Apr 15:37:34 15:42:45 52° 260° (W) 15:47:56 435.225
YUBILEINY 02 Apr 15:46:37 15:53:28 23° 290° (WNW) 15:59:59 435.215
AIST 1 02 Apr 15:54:54 15:59:10 66° 265° (W) 16:03:22
ITAMSAT 1 02 Apr 16:03:00 16:07:06 22° 265° (W) 16:11:04 435.822/435.867
SWISSCUBE 02 Apr 16:14:13 16:16:54 15° 292° (WNW) 16:19:22 437.505
JUGNU 02 Apr 16:15:15 16:19:31 20° 189° (S) 16:23:44 437.505
BEESAT 02 Apr 16:16:15 16:19:04 15° 292° (WNW) 16:21:38 436.000
HORYU 2 02 Apr 16:17:16 16:21:42 87° 257° (WSW) 16:26:10 437.375
JAS-2 02 Apr 16:42:39 16:49:31 72° 75° (ENE) 16:57:10 435.910
KKS-1 02 Apr 16:46:23 16:50:24 33° 287° (WNW) 16:54:23 437.445
STARS 02 Apr 17:07:38 17:11:32 30° 287° (WNW) 17:15:22 437.465
MOZHAYETS 4 02 Apr 17:17:50 17:21:34 24° 95° (E) 17:25:22
RS-15 02 Apr 17:19:21 17:26:47 23° 105° (ESE) 17:34:51 29.354- 29.394
SRMSAT 02 Apr 17:22:53 17:27:23 22° 187° (S) 17:31:51 437.500
AO-7 02 Apr 17:24:45 17:32:44 49° 259° (W) 17:40:39 29.400- 29.500
SO-50 02 Apr 17:38:15 17:42:17 33° 112° (ESE) 17:46:31 436.795
AUBIESAT-1 02 Apr 17:48:57 17:50:26 12° 93° (E) 17:52:12 437.475
JUGNU 02 Apr 18:06:39 18:07:56 11° 197° (SSW) 18:09:04 437.505
GONETS M04 02 Apr 18:10:20 18:14:36 16° 82° (E) 18:19:32
M-CUBED/EXP-1 PRIME 02 Apr 18:15:19 18:19:24 28° 99° (E) 18:23:23 437.505
BEESAT 2 02 Apr 18:18:39 18:21:17 17° 51° (NE) 18:24:01 435.950
JAS-2 02 Apr 18:30:50 18:35:27 17° 273° (W) 18:39:51 435.910
BEESAT 3 02 Apr 18:49:11 18:53:04 42° 58° (ENE) 18:56:55 437.485
MOZHAYETS 4 02 Apr 18:54:55 18:58:45 25° 288° (WNW) 19:02:28
CUTE-I 02 Apr 18:56:42 19:02:03 84° 78° (ENE) 19:07:27 437.470
Cubesat XI-IV 02 Apr 18:58:18 19:03:40 88° 80° (E) 19:09:05 437.490
SRMSAT 02 Apr 19:13:10 19:15:58 13° 195° (SSW) 19:18:39 437.500
CUBESAT XI-V 02 Apr 19:17:36 19:21:49 35° 97° (E) 19:26:02 437.345
SO-50 02 Apr 19:19:13 19:22:54 22° 309° (NW) 19:26:37 436.795
AUBIESAT-1 02 Apr 19:20:59 19:25:41 57° 290° (WNW) 19:30:09 437.475
RS-15 02 Apr 19:27:19 19:38:14 75° 300° (WNW) 19:49:16 29.354- 29.394
PRISM 02 Apr 19:43:26 19:47:30 52° 100° (E) 19:51:31 437.425
M-CUBED/EXP-1 PRIME 02 Apr 19:50:11 19:54:09 25° 294° (WNW) 19:57:54 437.505
BEESAT 2 02 Apr 19:55:48 19:59:35 35° 247° (WSW) 20:03:16 435.950
AIST 2 02 Apr 19:56:58 20:01:11 67° 61° (ENE) 20:05:18 435.215
GONETS M04 02 Apr 20:01:51 20:10:33 83° 277° (W) 20:19:21
HO-68 02 Apr 20:03:24 20:08:23 22° 64° (ENE) 20:13:40 435.675
BRITE-PL 02 Apr 20:08:41 20:11:51 19° 72° (ENE) 20:15:01 437.365/2234.400
STRAND 1 02 Apr 20:19:49 20:24:57 84° 102° (ESE) 20:30:02 437.568
BEESAT 3 02 Apr 20:29:02 20:30:46 12° 251° (WSW) 20:32:18 437.485
GOMX 1 02 Apr 20:31:08 20:34:20 21° 73° (ENE) 20:37:34 467.674
COMPASS 1 02 Apr 20:35:15 20:36:33 12° 69° (ENE) 20:38:06 437.405
CUBESAT XI-V 02 Apr 20:55:54 20:59:01 18° 290° (WNW) 21:01:58 437.345
Oscar 11 02 Apr 21:05:56 21:06:35 10° 68° (ENE) 21:07:32 145.826/435.025
ISS 02 Apr 21:06:28 21:09:42 78° 135° (SE) 21:12:58 145.825
CANX-2 02 Apr 21:17:23 21:21:34 68° 77° (ENE) 21:25:49 2200.000
DANDE 02 Apr 21:17:32 21:20:35 84° 282° (WNW) 21:23:14 436.750
CUTE 1.7 + AOD 2 02 Apr 21:30:32 21:34:46 89° 79° (E) 21:39:03 437.475
DOVE 4 02 Apr 21:33:39 21:37:58 77° 76° (ENE) 21:42:09 437.250
AAUSAT CUBESAT 2 02 Apr 21:36:39 21:40:44 58° 76° (ENE) 21:44:52 437.432
ZACube-1 02 Apr 21:39:45 21:41:25 13° 69° (ENE) 21:43:20 437.345
UWE-3 02 Apr 21:41:04 21:43:39 17° 71° (ENE) 21:46:24 435.000/436.395/437.385
CUSAT 1 02 Apr 21:42:16 21:44:12 17° 282° (WNW) 21:46:00 437.405
RS-15 02 Apr 21:45:25 21:53:01 20° 326° (NW) 22:00:17 29.354- 29.394
BRITE-PL 02 Apr 21:46:09 21:50:16 30° 263° (W) 21:54:07 437.365/2234.400
HO-68 02 Apr 21:48:33 21:55:37 62° 258° (WSW) 22:02:44 435.675
SEEDS 02 Apr 21:52:41 21:56:50 57° 260° (W) 22:01:01 437.485
CUBEBUG 2 02 Apr 21:55:10 21:58:47 31° 74° (ENE) 22:02:29 437.445
GONETS M04 02 Apr 22:05:11 22:09:02 13° 297° (WNW) 22:12:07
COMPASS 1 02 Apr 22:07:52 22:11:54 46° 261° (W) 22:15:57 437.405
GOMX 1 02 Apr 22:08:41 22:12:25 25° 264° (W) 22:15:56 467.674
UKube-1 02 Apr 22:11:17 22:14:41 23° 71° (ENE) 22:18:09 .
CINEMA 3 02 Apr 22:14:59 22:19:10 69° 260° (W) 22:23:17 145.822/145.860
DELFI C3 02 Apr 22:21:37 22:25:39 69° 77° (ENE) 22:29:44 145.870
DX 1 02 Apr 22:27:21 22:31:22 38° 73° (ENE) 22:35:26 434.975-435.025
Oscar 11 02 Apr 22:38:08 22:42:21 54° 260° (W) 22:46:37 145.826/435.025
ISS 02 Apr 22:45:21 22:46:29 11° 331° (NNW) 22:47:32 145.825
ESTCUBE 1 02 Apr 22:45:45 22:47:34 13° 68° (ENE) 22:49:37 437.505/2401.250
ANTELSAT 02 Apr 22:55:25 22:58:10 16° 92° (E) 23:01:09 437.575/2403.000
FUNcube-1 02 Apr 22:58:31 23:02:37 64° 259° (W) 23:06:46 145.935
CUBEBUG 1 02 Apr 23:13:18 23:16:41 22° 71° (ENE) 23:20:08 437.445
ZACube-1 02 Apr 23:13:35 23:17:29 40° 262° (W) 23:21:24 437.345
50 SAT 02 Apr 23:15:08 23:18:56 57° 77° (ENE) 23:22:49 437.505
UWE-3 02 Apr 23:16:23 23:20:01 29° 264° (W) 23:23:38 435.000/436.395/437.385
HUMSAT D 02 Apr 23:25:19 23:29:22 63° 260° (W) 23:33:27 437.325/437.525
VELOX 1 02 Apr 23:26:33 23:31:00 79° 77° (ENE) 23:35:26 145.980
PCSat 02 Apr 23:28:11 23:33:09 36° 58° (ENE) 23:38:08 145.827
DUCHIFAT 1 02 Apr 23:29:14 23:31:51 16° 93° (E) 23:34:37 145.980
QB50P1 02 Apr 23:30:11 23:32:56 17° 94° (E) 23:35:52 145.935-145.965
CUBEBUG 2 02 Apr 23:33:05 23:35:37 15° 267° (W) 23:38:00 437.445
AISAT 02 Apr 23:33:25 23:37:51 82° 256° (WSW) 23:42:19 437.250
QB50P2 02 Apr 23:46:04 23:49:42 28° 96° (E) 23:53:25 145.880/145.840
UKube-1 02 Apr 23:47:13 23:50:45 23° 264° (W) 23:54:11 .
BUGSAT 1 02 Apr 23:47:16 23:50:01 18° 94° (E) 23:52:55 437.445
